Portada
METAR-TAF:

METAR-TAF

Aeroports :

Penrhyn, Illes Cook

latitud: 9-00-52S, longitud: 158-01-57W, altitud: 2 m

Observació

L'informe es va fer fa 5 minuts, a les 09:00 UTC
Vent 16 kt del Est
Temperatura 28°C
Humitat 74%
Pressió 1013 hPa

METAR: NCPY 190900Z AUTO 08016KT //// ////// 28/23 Q1013

Hora: 23:05 (09:05 UTC)


TAF: manca

Observacions i pronòstics meteorològics de més de 4000 aeroports (METAR i TAF).

Les estacions disponibles són els punts grocs i vermells al mapa.

Posi el ratolí al punt desitjat per veure el nom de l'estació.

Feu clic per veure les observacions i els pronòstics meteorològics.

Per canviar el mapa: feu clic els botons verds amb una creu de color negre per apropar; al botó verd amb un guió per allunyar la imatge; o en les fletxes verdes per a mapes adjacents.


METAR-TAF: